Temp
8 8 8 8 8 8 8 9 9 10 13 14 14 14 14 14 14 14 14 14 15 15 15 15 15 16 16 16 17 17 18 18 19 18 18 19 19 20 20 20 20 20 20 21 20 20 20 20 20 21 21 21 21 22 23 23 23 23 22 20 20 20 21 22 23 24 24 25 25 26 26 26 26 27 28 29 29 28 28 28 28 28 27 26 25 23 21 21
8 8 8 8 8 8 8 9 10 11 13 14 14 14 14 14 14 14 14 15 15 15 15 16 16 16 16 16 17 17 18 18 18 18 19 20 20 20 20 20 20 20 21 21 20 19 19 19 19 19 20 21 22 22 22 23 23 22 22 21 20 21 22 24 24 24 24 24 25 25 26 26 26 26 28 28 27 28 28 27 27 26 25 24 23 22 21 21
8 8 8 8 8 8 9 9 11 12 13 13 14 14 14 14 14 14 14 15 15 15 16 16 16 16 16 17 17 17 17 17 18 19 20 20 20 20 20 20 20 20 21 21 20 19 18 19 19 18 20 21 22 22 22 23 23 22 22 21 21 23 23 24 25 25 25 25 25 25 25 26 26 26 27 26 26 27 27 26 27 25 23 23 22 21 21 21
8 9 9 9 8 9 9 10 11 13 14 14 14 14 15 15 15 14 14 14 15 16 16 16 16 16 17 17 17 17 16 17 19 20 20 20 20 20 20 20 20 20 21 21 20 20 19 19 18 19 20 21 22 22 22 23 23 23 22 21 22 24 23 24 25 25 25 25 25 25 25 25 26 26 26 26 25 26 26 27 27 25 23 22 22 22 22 21
9 9 9 9 9 9 9 9 12 14 14 14 14 15 15 15 15 14 14 14 15 16 16 16 16 16 17 17 17 17 17 18 20 20 20 20 20 20 20 20 20 21 21 21 20 20 19 19 19 21 22 22 22 22 22 23 23 23 23 22 23 24 23 24 25 25 25 25 25 24 25 25 26 26 26 26 25 25 27 28 28 26 24 23 22 22 22 22
9 9 9 9 9 9 9 10 13 15 14 14 15 15 15 15 14 14 14 14 15 16 17 17 16 16 17 17 17 17 17 19 20 21 21 20 20 20 20 20 20 21 21 20 20 19 19 20 21 22 22 22 22 22 22 23 23 22 22 23 23 23 23 24 25 25 25 25 25 25 25 25 25 25 26 26 25 26 27 28 28 27 24 23 23 22 22 22
10 10 9 9 9 9 9 11 14 15 14 14 15 15 15 15 14 14 14 14 15 16 17 17 17 17 17 17 16 16 17 18 20 21 21 20 20 20 20 20 21 20 20 20 19 19 20 21 22 22 21 21 21 22 22 23 23 22 22 23 23 23 23 24 25 25 25 24 25 25 24 25 25 25 25 26 26 26 27 28 28 26 23 22 23 22 22 22
11 10 10 9 9 9 10 13 15 15 14 15 15 15 15 15 14 14 14 14 15 16 16 17 17 17 17 17 16 17 17 19 21 21 21 21 20 20 20 21 21 20 20 20 20 20 20 21 22 22 21 21 21 21 22 22 22 22 22 23 24 24 24 24 24 25 24 24 24 24 24 25 24 24 25 25 26 26 27 28 26 25 24 23 23 22 21 22
11 11 11 10 9 10 12 14 15 15 15 15 15 15 15 15 15 14 14 14 15 16 16 16 17 17 17 16 16 18 19 21 21 21 21 21 21 21 21 21 21 21 20 20 20 20 20 21 22 22 21 21 21 21 21 22 21 21 22 23 24 24 24 24 24 24 24 24 24 24 24 25 25 24 24 25 26 26 26 27 25 24 24 23 23 23 22 21
12 12 12 11 11 11 13 15 15 15 15 15 15 15 15 15 15 15 15 15 15 16 17 16 16 16 16 16 17 18 21 22 22 22 22 21 21 21 21 22 21 21 20 20 21 21 21 22 22 22 22 21 21 20 21 21 21 21 22 22 23 23 23 23 24 24 24 24 25 24 24 25 25 24 24 25 26 26 26 26 25 24 24 22 22 23 22 20
13 13 12 13 13 13 14 15 15 15 15 15 16 15 15 15 15 15 15 15 16 16 16 16 16 16 16 16 17 18 21 22 22 22 22 22 22 22 22 22 21 21 21 21 22 22 22 22 22 22 22 21 21 21 21 21 21 22 22 22 23 23 23 24 24 24 24 24 25 24 24 24 24 24 24 24 25 26 26 26 26 25 24 22 22 23 22 20
14 13 13 13 14 14 15 15 16 16 15 16 16 16 16 15 15 15 16 16 16 16 16 16 16 16 15 16 17 19 21 22 22 22 22 22 22 22 22 22 22 21 21 22 22 23 23 23 22 22 21 21 21 20 21 22 21 22 22 21 22 22 23 24 24 24 24 24 25 24 23 23 24 24 24 25 25 26 25 25 26 26 24 22 22 22 21 20
14 14 14 14 14 15 15 15 16 16 16 16 16 16 16 16 16 16 16 17 16 16 16 16 16 16 16 18 20 21 22 22 22 22 22 22 22 22 22 22 22 22 22 22 23 23 23 23 23 22 22 21 21 21 22 22 22 22 22 21 21 21 22 23 23 23 23 23 24 24 22 22 23 24 24 25 26 26 25 25 25 25 25 24 23 22 20 20
14 14 14 14 15 15 15 15 16 16 16 16 16 16 16 16 17 17 17 17 17 17 16 16 16 15 16 19 21 22 22 22 22 22 22 22 21 21 22 22 22 22 22 23 23 23 23 23 23 22 22 22 21 21 21 21 21 21 21 21 21 20 21 23 23 23 23 23 24 23 21 21 23 24 24 25 26 25 25 25 25 25 25 26 24 21 20 20
14 14 14 15 15 15 15 15 16 16 16 16 17 17 17 17 17 17 18 18 17 17 17 17 16 16 16 18 21 22 22 22 22 22 22 22 21 21 22 22 22 22 23 23 23 23 23 23 22 21 21 22 22 21 20 20 21 21 20 20 20 20 21 22 22 22 23 23 24 23 21 21 22 23 24 25 26 25 25 25 25 24 25 26 25 20 19 21
14 14 14 15 15 15 15 16 16 16 16 17 17 18 18 17 17 18 18 18 18 17 17 17 17 16 17 19 21 22 22 22 23 23 23 23 23 23 23 23 23 23 23 23 23 23 23 23 22 22 21 21 21 20 19 19 20 20 20 19 19 20 20 21 22 23 23 23 23 23 22 22 22 23 24 25 25 24 24 25 25 25 24 25 25 22 20 21
14 14 14 14 15 15 15 16 16 16 17 17 18 18 19 18 18 18 18 18 18 18 17 17 17 16 18 20 21 22 22 23 23 23 23 23 23 23 23 23 23 23 23 23 23 22 22 22 21 21 21 20 20 19 19 18 18 19 19 19 19 20 20 20 22 23 23 23 22 23 22 22 23 23 24 25 25 24 24 24 24 25 25 25 25 24 22 22
14 14 14 14 15 15 15 16 16 16 17 18 18 19 20 20 18 18 18 18 18 18 17 16 16 17 18 20 21 22 23 23 23 23 23 24 24 23 23 23 23 22 22 22 22 21 21 21 21 20 20 20 20 19 18 18 18 18 18 19 19 19 20 20 21 22 23 23 23 22 21 22 23 23 24 24 24 23 23 24 24 24 25 24 24 25 24 22
14 14 14 14 15 15 15 16 16 16 17 18 19 19 20 20 19 18 18 18 18 18 18 17 17 18 19 20 21 22 23 24 23 24 24 24 24 23 23 23 23 22 21 21 21 21 21 20 20 19 19 19 19 19 18 18 19 18 18 19 19 19 19 20 21 22 23 22 23 22 22 23 23 23 24 24 24 24 23 23 23 23 24 24 23 25 25 23
13 14 14 14 15 15 16 16 16 16 17 18 19 19 19 18 18 19 18 18 18 18 19 19 18 19 19 21 22 23 23 24 23 23 24 24 23 23 23 22 22 21 21 20 20 20 20 19 18 18 18 18 19 19 19 19 19 19 19 19 19 19 19 20 21 22 22 22 22 21 21 22 22 23 23 23 24 25 24 23 24 24 24 24 23 24 25 25
13 14 14 14 15 16 16 16 16 17 17 17 17 18 18 18 18 18 18 18 18 18 19 19 19 19 20 21 22 23 23 23 22 23 23 23 23 22 22 22 21 20 20 20 19 20 19 19 18 18 19 19 20 20 19 19 19 19 19 19 19 19 19 20 21 21 22 21 21 21 21 21 22 22 22 22 23 24 24 24 24 25 24 24 23 23 24 25
13 13 14 14 15 16 16 17 17 17 18 17 17 16 16 18 19 18 18 18 18 19 19 19 19 19 20 21 22 23 22 22 22 22 23 23 22 21 21 21 20 20 20 20 19 19 18 18 19 19 19 19 20 20 19 19 19 19 19 19 19 19 19 20 21 21 21 21 21 21 21 21 21 21 22 22 22 23 23 24 24 25 24 24 24 24 23 24
13 13 14 14 14 16 16 17 17 17 18 17 16 16 17 19 19 19 19 18 18 19 19 20 20 20 21 22 23 23 22 21 21 22 23 23 22 21 21 21 20 19 19 19 19 18 18 18 20 20 19 19 19 19 19 19 19 19 19 19 19 19 19 19 20 21 21 21 21 21 21 21 21 21 21 21 21 21 21 21 21 22 23 23 24 24 24 24
13 13 13 13 14 16 17 17 17 17 18 17 17 18 19 19 19 19 19 17 17 19 20 21 21 21 22 22 23 23 21 21 21 22 23 23 22 21 21 20 20 19 19 19 19 18 18 19 19 19 19 19 19 19 19 19 19 19 19 19 19 20 19 19 20 20 21 21 21 20 20 21 21 20 20 19 19 19 19 19 19 19 20 22 23 24 24 24
13 13 13 13 14 16 17 17 18 17 18 18 18 19 19 19 19 19 18 17 17 18 20 21 22 22 22 22 23 22 21 22 22 22 23 23 22 21 20 21 20 19 19 19 19 18 19 19 19 19 19 19 19 18 18 19 19 19 20 20 19 20 20 19 20 20 20 20 20 20 18 19 20 19 18 18 18 18 18 17 17 18 19 21 23 23 23 22
13 13 13 13 13 15 17 17 17 17 17 18 18 19 19 19 19 19 18 16 17 19 21 21 21 21 22 22 22 22 21 21 23 23 23 23 22 22 21 20 20 19 20 20 19 19 19 20 19 19 19 19 19 18 19 19 18 18 19 20 20 20 20 19 19 18 18 19 20 20 18 18 20 19 18 17 17 17 17 17 17 18 18 18 19 21 22 21
13 13 13 13 13 13 14 16 15 16 17 17 18 18 19 19 19 19 18 16 17 20 21 20 21 21 22 22 22 21 20 21 22 22 23 23 22 22 21 20 20 20 20 20 18 19 19 19 19 19 19 19 18 18 19 20 18 18 20 20 20 20 19 19 19 18 18 19 19 20 19 18 19 18 17 17 17 17 16 16 16 17 17 17 17 17 18 19
13 13 12 13 13 11 11 13 13 15 17 17 17 18 18 19 19 18 17 16 17 20 20 20 21 21 21 22 22 21 21 21 21 21 23 23 22 21 20 20 19 19 20 19 18 18 19 19 19 19 19 18 18 19 20 20 19 19 20 20 20 20 19 19 19 18 18 18 18 19 19 18 18 18 17 17 16 15 15 14 15 16 16 17 17 16 16 17
13 13 13 13 14 13 12 12 13 15 17 17 18 18 18 19 18 17 16 16 19 20 20 20 21 21 21 21 21 21 22 22 21 21 23 22 22 22 20 20 20 19 20 19 18 18 19 19 20 19 19 19 19 20 20 20 20 20 20 20 20 20 19 19 19 19 18 17 18 19 19 18 17 16 15 15 15 14 13 13 14 15 16 16 16 16 15 15
14 13 13 13 13 13 12 13 14 16 17 17 17 18 19 18 17 17 16 17 19 19 20 21 20 20 20 20 20 21 21 21 21 22 22 21 21 21 20 20 20 19 19 18 18 19 19 19 20 20 20 20 20 20 20 20 19 20 20 20 19 19 18 18 18 18 17 17 18 19 19 18 17 14 13 14 14 12 12 13 13 14 15 16 16 15 14 14
15 14 13 13 13 13 13 14 16 17 17 17 17 18 18 17 16 16 17 18 19 19 19 20 20 20 20 19 19 20 20 20 21 21 21 21 20 20 20 19 19 18 18 18 18 18 18 19 19 20 20 20 20 20 20 19 19 19 19 19 18 18 17 17 17 17 16 16 18 18 18 18 16 14 13 13 13 12 11 12 12 13 15 16 16 16 15 14
15 15 14 14 15 14 15 16 17 17 17 17 17 17 17 16 16 16 17 19 19 18 18 19 19 20 20 19 19 19 20 20 20 20 19 20 19 19 19 18 18 17 16 16 17 17 18 18 18 19 20 20 19 19 19 19 19 19 18 18 17 16 16 16 15 15 15 16 17 18 18 17 14 13 13 13 13 13 13 13 13 13 15 16 17 17 16 15
16 16 16 16 16 16 17 17 17 17 17 17 17 17 17 16 16 16 17 18 18 18 18 19 19 19 19 19 19 19 19 19 19 19 19 19 19 18 18 18 18 17 16 15 16 16 17 17 18 18 19 19 19 18 18 18 19 18 18 18 17 15 15 15 14 14 15 16 17 17 17 16 13 13 13 13 13 13 14 14 13 14 15 16 17 17 17 17
16 16 16 16 17 18 18 17 17 17 16 16 17 17 17 16 16 17 17 17 18 18 18 18 18 19 19 18 18 18 18 18 17 18 18 18 18 17 17 18 18 18 16 16 15 15 15 16 17 17 18 18 18 18 18 18 18 18 17 18 17 16 16 15 14 14 15 15 16 17 16 15 13 13 13 13 14 14 14 14 14 14 15 16 17 17 17 17
17 16 17 17 17 18 18 17 17 16 15 16 17 17 16 16 16 17 17 17 18 18 18 18 18 19 18 18 18 18 18 17 17 17 16 16 16 16 16 17 18 17 17 15 15 15 15 16 17 17 17 18 17 17 18 18 18 18 17 17 17 17 17 16 15 15 15 14 15 15 14 13 13 13 13 14 14 14 14 14 14 15 16 16 16 16 16 16
17 17 17 17 18 18 18 18 17 16 16 17 17 17 16 17 17 17 17 18 18 17 18 18 18 18 17 17 17 17 18 17 16 16 15 14 14 15 15 16 18 17 17 16 14 15 15 16 16 16 17 18 16 17 18 18 17 17 17 17 17 17 17 17 15 15 15 14 15 14 13 13 14 13 13 14 14 14 14 14 15 16 16 16 16 16 16 16
16 16 16 17 18 19 18 18 17 17 16 17 17 16 16 17 18 18 18 18 18 17 17 17 17 17 16 16 16 16 17 17 16 16 15 14 14 14 14 16 17 17 17 16 15 14 14 15 15 15 16 17 16 16 18 17 17 17 17 17 17 17 17 17 16 15 15 14 14 13 13 13 13 13 12 13 13 14 14 14 15 15 16 15 15 15 15 15
14 14 15 18 19 19 18 18 17 17 17 17 16 16 17 18 18 19 19 18 18 18 17 16 16 16 15 15 15 16 16 16 15 15 15 14 14 14 14 16 17 17 17 17 16 15 14 14 15 14 15 15 16 16 17 17 17 17 17 17 17 16 17 16 16 15 15 14 14 13 13 13 13 12 11 12 12 13 14 14 14 15 15 15 15 15 15 15
12 13 17 19 20 19 18 18 17 17 17 17 16 16 17 18 18 19 19 18 18 17 16 16 16 16 15 15 15 15 16 16 15 14 14 14 14 14 14 15 17 17 17 17 16 14 14 14 14 14 14 14 15 15 15 15 16 17 17 17 16 16 16 16 16 15 15 15 14 13 13 12 12 12 12 12 12 13 14 14 14 15 15 15 14 14 14 14
11 14 18 19 19 19 18 18 17 16 16 17 16 17 18 18 19 19 19 18 18 17 17 16 16 16 16 15 15 15 15 15 15 14 14 14 14 14 14 15 17 17 16 16 15 14 14 14 14 14 14 14 13 14 13 14 15 16 15 16 15 16 16 15 15 15 15 15 14 14 13 12 12 12 12 12 13 13 14 14 14 14 14 14 14 14 14 14
11 15 18 18 19 19 18 18 17 16 16 17 16 17 18 18 19 19 19 18 18 18 18 17 17 16 16 16 15 15 15 15 14 14 13 13 14 15 16 17 17 17 16 15 15 14 14 14 13 13 13 13 12 13 14 14 15 15 14 14 14 15 15 15 15 14 15 15 14 14 13 12 12 13 12 12 13 13 13 13 14 14 14 14 14 14 14 13
12 16 18 18 19 19 18 17 16 16 17 17 17 18 18 19 19 19 19 19 18 18 18 17 17 16 16 16 16 16 15 15 14 13 13 13 14 15 16 18 18 17 16 15 15 15 14 14 13 12 12 12 12 13 14 14 15 15 14 14 14 14 14 15 15 14 14 14 14 13 13 12 12 13 13 12 13 13 13 13 13 14 14 14 14 14 13 13
14 16 18 19 19 18 18 17 16 17 17 18 18 19 19 19 19 19 19 18 18 18 18 17 17 17 16 16 16 16 16 15 14 14 14 14 15 16 17 18 18 17 16 15 14 15 15 13 13 12 12 13 13 14 14 15 15 15 14 14 14 14 14 15 15 15 14 13 13 13 13 12 12 13 13 13 13 13 13 13 13 14 13 14 14 13 13 13
12 13 16 18 19 18 17 16 17 17 17 18 18 18 19 19 19 19 18 18 18 18 18 18 17 17 17 17 17 16 16 15 14 14 14 13 14 17 18 18 18 17 16 16 15 15 14 13 13 12 12 12 13 13 14 14 14 13 13 13 13 14 14 15 15 15 14 13 13 14 13 12 12 12 12 12 12 13 13 13 13 13 13 13 13 13 13 13
11 13 15 16 18 18 17 17 17 17 17 17 17 17 18 18 19 19 18 18 18 18 18 18 18 18 17 17 17 16 16 16 15 14 14 14 14 17 18 18 17 17 17 17 17 16 14 13 13 13 12 12 12 12 13 13 12 13 13 13 13 13 13 14 15 14 14 13 13 13 12 11 12 12 12 12 12 13 13 13 13 13 13 13 13 13 13 12
13 15 16 17 17 17 17 17 17 17 17 16 17 17 17 18 18 18 18 18 18 18 18 18 18 18 17 16 16 16 16 16 15 15 14 14 15 17 18 18 18 17 18 17 17 16 14 13 13 13 13 13 12 12 13 12 12 12 13 13 13 13 13 14 14 14 13 13 12 12 12 11 11 12 12 12 12 12 13 13 13 13 13 13 13 13 13 12
13 16 16 16 17 16 17 17 17 17 17 16 17 17 17 18 18 18 18 18 18 18 18 18 18 17 16 16 16 15 15 15 15 15 15 15 16 17 18 18 18 18 17 17 16 16 14 13 13 13 13 13 13 13 13 12 12 13 13 13 13 13 13 13 13 13 13 13 12 12 12 12 11 11 12 12 13 13 13 13 13 13 12 12 13 13 12 13
13 16 16 15 16 16 16 17 17 17 17 16 17 17 17 17 17 17 18 18 18 19 18 17 17 17 17 16 16 15 15 15 15 15 15 15 15 16 17 18 18 18 17 16 16 16 14 13 13 13 13 13 13 13 13 13 13 13 13 13 13 13 13 13 12 12 13 13 12 12 12 12 11 12 12 13 13 13 13 12 12 12 12 12 12 12 12 12
14 15 16 15 15 16 16 16 16 16 17 17 17 17 17 17 17 17 18 18 18 18 18 17 16 16 17 17 16 15 15 15 14 15 15 15 15 16 16 17 17 17 17 16 16 16 14 13 13 13 12 13 13 13 14 13 13 13 13 13 13 13 13 12 12 12 12 12 12 12 12 12 12 12 13 13 13 13 12 12 12 12 12 12 12 12 12 12
14 14 15 15 15 15 15 16 16 16 17 17 17 17 17 17 17 17 18 18 17 17 17 17 16 16 17 17 16 16 15 15 15 15 15 15 15 16 16 17 17 17 17 17 16 15 15 14 13 13 12 12 13 13 13 13 13 13 13 13 13 13 12 12 12 12 12 12 12 12 12 12 13 13 13 13 13 13 13 12 12 12 12 11 11 11 11 11
13 14 14 14 15 15 15 16 16 16 16 16 16 17 17 17 17 17 17 18 17 17 17 17 16 16 16 16 16 16 16 16 16 16 16 16 16 16 16 17 17 17 17 17 16 16 15 14 13 13 12 12 13 13 13 13 13 13 13 13 13 13 13 13 13 13 13 12 12 12 12 13 13 13 13 13 13 13 13 12 12 12 11 11 11 11 11 11
12 13 14 14 14 15 15 15 16 16 16 16 16 17 17 17 18 18 17 17 17 17 17 17 17 16 16 16 16 16 16 17 17 17 17 16 16 16 16 16 17 17 17 17 16 16 15 14 13 13 13 13 13 13 13 13 12 13 13 13 13 13 13 13 13 13 13 13 12 12 13 13 13 13 13 13 13 13 12 12 12 12 11 11 11 11 11 11
Height
827 826 824 822 820 819 818 816 815 814 813 812 811 810 809 808 807 806 805 804 803 801 800 800 798 797 796 795 794 793 792 791 790 789 789 787 786 786 786 786 785 785 785 785 785 784 783 783 782 782 783 783 784 783 783 783 783 788 795 803 808 807 801 794 791 788 787 783 776 774 773 777 776 770 762 755 756 755 752 747 742 742 742 746 750 753 759 764
827 826 824 822 820 818 817 816 815 813 813 812 811 810 809 808 807 806 805 804 803 801 801 800 799 798 796 795 794 793 792 791 790 788 786 786 786 786 786 785 785 785 785 785 784 785 785 784 783 784 784 784 784 782 783 782 782 789 794 801 804 799 792 785 785 783 783 781 776 774 774 775 775 771 765 765 767 760 759 757 750 752 752 751 754 758 761 763
827 825 823 822 820 818 817 815 814 813 812 811 810 809 808 808 807 806 805 804 802 801 801 800 799 798 797 796 794 793 792 790 789 787 785 785 786 786 786 785 785 785 785 785 784 785 785 784 784 787 786 785 784 783 785 783 783 787 791 801 798 788 785 781 780 779 778 777 775 775 773 774 772 769 767 770 772 764 763 762 759 763 761 757 757 758 760 763
827 825 823 821 820 818 816 814 813 812 811 811 810 809 808 807 806 805 804 803 802 801 800 800 799 798 797 795 794 794 791 792 790 786 785 785 785 785 785 785 785 785 784 784 784 784 784 783 784 785 786 786 785 784 786 784 784 785 787 796 790 782 784 780 777 777 775 775 775 774 773 774 770 767 768 770 775 773 766 760 759 763 762 758 757 757 759 761
827 825 823 821 819 817 815 814 812 811 811 810 809 808 807 807 806 805 804 802 801 801 800 800 799 798 797 795 795 793 793 797 792 785 786 785 785 785 785 785 785 785 784 784 784 783 783 782 782 783 784 786 786 786 786 782 782 785 784 786 782 781 783 778 774 775 773 773 774 774 774 772 768 768 769 770 778 777 767 759 756 758 759 758 755 755 758 760
827 824 823 821 818 817 815 813 811 810 810 809 808 807 807 806 805 804 803 801 800 800 800 800 799 798 796 795 795 793 795 799 790 784 786 784 785 785 785 785 784 784 784 784 783 782 783 782 782 784 784 786 787 787 785 780 781 787 785 780 778 778 779 775 771 771 771 773 774 772 771 769 769 770 767 768 774 771 762 756 754 755 758 761 759 758 758 760
826 824 822 820 818 816 814 812 811 810 809 808 808 807 806 805 804 803 802 801 800 800 800 799 798 797 796 795 794 793 796 794 785 785 786 784 785 784 785 785 784 785 784 783 783 783 783 783 784 785 786 788 788 786 784 781 780 786 785 779 777 776 776 773 770 769 769 772 771 768 768 768 771 769 766 768 769 765 759 755 753 753 757 762 766 767 763 758
826 824 822 820 817 815 813 812 810 809 808 807 807 806 805 804 803 803 801 800 799 799 799 799 798 797 795 795 794 795 796 790 783 785 785 784 785 784 785 784 784 784 783 783 783 783 784 784 784 784 788 790 788 786 784 782 781 784 784 778 775 774 773 771 770 769 768 770 769 767 768 767 767 766 765 767 766 763 759 755 755 755 756 761 766 771 773 768
826 824 821 819 817 815 813 811 809 809 808 807 806 805 804 803 802 802 801 800 799 799 799 798 798 796 795 794 794 796 791 785 783 784 784 784 784 784 784 783 784 783 782 782 782 783 784 784 784 783 787 787 786 786 784 786 787 785 783 778 775 774 771 770 769 768 768 767 766 768 768 764 761 763 765 763 762 762 759 758 759 759 760 762 764 767 774 777
826 824 821 819 817 815 813 811 809 808 807 806 805 804 804 802 802 801 800 799 798 799 798 798 797 796 796 794 796 797 787 782 784 783 783 783 783 784 783 782 783 782 782 781 781 783 783 783 782 780 782 785 785 786 784 787 787 783 781 778 774 774 771 769 769 767 767 766 765 768 769 764 759 763 768 763 759 759 760 762 761 762 763 764 765 765 768 776
826 823 821 819 817 815 812 810 809 807 806 805 804 803 803 801 801 800 799 798 798 798 798 798 797 796 795 794 798 796 784 782 784 782 783 782 782 783 782 782 782 782 782 780 780 781 781 781 779 779 783 785 786 785 783 782 782 779 778 777 773 772 769 767 767 766 767 767 764 766 767 764 761 763 764 760 757 757 760 762 762 763 764 765 766 765 767 773
825 823 821 819 817 814 812 810 808 807 805 804 803 802 801 801 800 799 798 798 798 798 798 797 797 796 795 794 795 789 782 783 783 782 782 780 781 781 781 782 781 781 781 780 780 779 780 779 779 782 785 785 787 788 783 778 779 777 776 779 776 772 771 768 767 767 768 768 763 766 772 770 765 764 760 754 752 753 758 760 761 762 762 764 765 766 769 771
825 823 821 819 816 814 812 810 808 806 804 803 802 801 800 799 799 798 797 798 798 797 797 797 796 795 795 793 786 782 782 784 783 781 780 779 780 780 780 781 780 781 780 780 779 778 779 779 779 782 782 784 787 786 781 777 778 778 777 781 781 780 778 769 767 769 769 768 762 769 784 780 768 763 759 753 747 750 756 758 760 762 761 762 763 768 771 770
825 822 820 818 816 814 812 809 808 806 804 802 801 800 799 798 798 798 797 797 797 797 797 796 796 795 796 790 781 781 782 782 783 781 779 779 780 780 780 780 780 780 780 779 779 778 778 778 778 780 780 782 783 781 782 781 781 781 782 783 787 793 785 769 769 773 771 767 761 771 788 784 769 762 759 753 748 751 756 756 758 761 762 761 762 768 771 770
824 822 820 817 815 813 811 809 807 805 803 801 800 799 798 797 797 797 797 797 797 797 796 796 795 794 796 790 780 780 780 780 782 779 778 779 779 780 779 779 779 779 780 779 778 778 777 777 779 782 782 780 780 785 789 789 785 786 792 795 795 797 790 775 771 773 773 767 762 772 786 781 769 763 758 753 751 752 756 756 757 759 761 761 761 766 769 768
824 822 819 817 815 812 810 808 806 804 802 800 799 798 797 797 796 796 797 796 796 796 796 796 795 796 798 790 780 779 780 780 779 778 778 779 778 779 778 778 778 778 779 778 777 777 777 778 779 781 782 782 786 791 795 797 795 793 798 802 799 798 796 785 772 767 769 769 766 771 779 777 768 762 757 753 752 754 756 756 756 757 759 759 761 764 767 766
824 821 819 816 814 812 810 808 806 803 801 799 798 796 795 795 794 795 795 795 796 795 795 796 795 797 795 785 781 781 779 778 778 778 777 777 778 777 777 777 777 776 777 776 777 777 778 780 782 783 784 787 790 794 802 809 808 802 801 802 799 796 797 790 778 768 766 770 769 769 773 773 765 761 758 754 753 755 756 756 755 754 756 758 759 761 763 764
823 821 818 815 813 811 809 807 805 803 801 799 797 796 794 793 792 793 794 795 795 794 795 795 796 800 796 784 782 781 777 777 776 776 776 776 776 776 776 776 775 776 777 778 778 779 781 782 785 788 790 793 793 797 808 812 808 807 806 804 800 796 794 792 784 772 767 770 769 770 774 771 765 763 759 755 754 756 756 754 754 753 753 755 758 759 759 761
823 821 818 815 812 810 808 807 805 803 800 798 797 795 793 792 791 791 793 794 795 796 798 796 795 799 795 784 780 778 776 775 775 775 775 775 775 776 775 776 776 778 782 786 785 783 785 787 791 796 798 800 798 799 803 803 801 803 802 801 800 797 794 789 781 770 767 772 771 773 775 771 767 765 761 757 754 754 754 753 754 753 751 753 756 757 757 759
822 820 817 814 811 809 808 806 804 803 800 799 797 795 795 796 796 796 794 793 793 794 794 792 792 792 788 782 779 777 776 775 775 774 773 774 775 775 776 776 778 781 785 790 790 785 786 794 800 801 801 799 796 794 795 794 795 796 797 796 795 796 794 785 777 769 767 773 775 775 776 773 771 766 762 760 756 754 754 752 752 751 750 751 753 756 755 756
821 819 816 813 810 808 807 805 804 803 801 800 798 798 799 800 803 803 797 792 788 788 789 787 788 789 784 781 779 777 776 776 775 774 773 773 773 777 779 780 784 788 788 788 789 786 788 799 801 796 795 792 790 789 790 791 791 793 795 796 794 795 792 783 778 773 768 773 776 772 773 773 770 767 763 761 759 756 753 751 750 747 747 747 749 753 754 753
821 819 816 813 810 807 805 804 803 802 801 800 799 800 800 799 800 800 797 795 788 784 785 783 784 786 781 779 779 777 778 779 779 775 773 773 775 780 783 783 788 792 788 788 791 793 797 800 795 790 790 789 787 787 789 791 791 793 794 796 798 794 790 783 777 774 769 774 777 772 772 771 767 765 762 759 759 757 754 753 752 749 748 746 744 746 751 752
821 818 815 812 809 806 804 803 802 801 801 800 800 800 799 798 798 796 797 799 792 782 782 782 781 782 780 779 776 775 779 782 782 778 773 775 777 780 782 785 790 792 790 791 795 801 803 797 788 786 788 789 789 788 790 792 791 793 793 796 798 792 792 791 781 775 772 773 776 774 773 769 766 765 762 761 761 759 757 756 754 751 749 746 742 741 744 749
820 817 815 811 808 805 803 802 801 801 800 799 799 799 799 798 797 796 797 799 797 786 779 779 778 778 779 777 774 777 781 780 780 777 772 775 778 779 782 785 789 792 791 791 793 799 799 790 784 786 787 788 791 790 792 794 793 792 790 793 794 789 791 792 784 778 774 772 772 775 779 773 770 773 771 766 764 763 763 760 757 754 749 745 742 740 740 743
819 817 814 811 808 804 802 801 800 801 800 798 799 799 799 798 796 796 797 802 803 789 779 777 777 777 776 775 775 776 780 780 776 774 771 773 777 780 783 783 787 793 791 789 793 796 793 785 784 788 787 787 791 792 792 793 795 794 788 786 788 787 786 787 785 785 787 785 776 780 795 789 776 780 782 776 773 772 771 768 766 760 754 749 743 740 739 741
819 816 813 811 808 803 801 800 800 801 799 799 800 799 798 798 796 795 798 809 808 790 783 782 780 780 776 776 775 775 784 783 773 771 772 773 773 776 783 784 785 791 789 787 791 792 789 783 783 787 788 787 791 793 789 788 796 798 788 781 783 784 785 787 789 793 798 795 781 780 800 799 784 784 788 784 782 780 777 776 774 766 761 758 751 743 739 741
818 815 813 811 808 804 802 801 802 801 799 800 799 798 798 796 796 794 800 818 813 789 785 785 781 781 778 776 775 780 792 786 773 773 771 772 772 773 783 787 787 789 784 787 796 793 788 785 786 787 788 791 794 793 786 784 794 796 783 778 782 783 786 788 790 795 797 793 785 780 790 798 793 791 791 787 787 786 784 785 781 773 767 764 760 754 747 745
817 815 812 810 808 806 805 804 803 801 800 801 798 797 797 795 796 795 806 824 812 787 786 786 780 779 777 776 776 781 785 780 781 780 769 771 774 774 785 787 788 790 783 790 802 795 787 788 788 788 790 793 791 786 781 781 789 788 777 778 782 782 784 786 788 793 793 794 796 786 784 797 800 795 793 790 791 794 795 794 790 780 772 769 767 762 756 753
816 814 811 809 807 806 805 804 803 801 800 799 797 797 795 794 795 798 812 821 802 787 789 786 781 782 779 778 779 780 779 778 783 780 770 773 773 774 784 784 784 788 784 789 798 792 787 785 783 785 789 789 785 779 777 780 783 779 775 778 780 781 784 785 788 791 792 800 802 790 785 797 805 806 804 799 799 804 805 800 796 789 778 773 773 767 762 760
815 813 810 807 805 805 805 804 802 801 799 797 797 796 793 796 799 808 821 815 797 792 790 785 786 787 784 785 785 782 781 781 780 776 774 777 776 775 780 780 780 786 788 790 792 789 785 779 778 781 782 781 779 777 776 778 780 777 777 781 783 786 787 788 792 792 799 806 800 790 788 792 805 816 815 810 809 814 814 804 798 798 787 777 776 773 766 766
813 811 809 805 804 804 804 803 801 800 799 797 797 794 795 801 807 817 821 804 795 798 793 790 791 787 787 792 793 788 785 784 781 781 783 782 782 783 783 785 787 791 796 795 793 790 786 783 781 779 776 777 778 778 777 778 778 779 782 786 790 796 795 796 798 799 807 810 798 792 791 792 810 821 819 815 811 813 816 809 804 805 795 781 779 776 770 770
811 809 807 804 803 803 803 802 800 800 798 797 796 794 799 809 814 820 814 798 802 806 798 797 795 790 790 793 794 791 789 789 786 787 789 788 789 790 791 794 796 800 807 806 801 797 791 788 786 780 776 778 781 784 782 779 779 783 787 790 799 809 808 809 812 812 814 808 796 793 792 800 821 826 819 816 811 810 812 808 804 805 796 783 777 774 771 771
809 806 805 803 802 801 801 801 800 799 798 796 796 797 803 814 818 817 810 804 808 805 797 797 795 792 793 794 795 793 791 794 792 790 791 790 792 794 794 793 793 801 809 809 807 805 798 793 788 785 782 780 783 789 791 788 786 788 790 792 801 813 817 820 823 821 818 809 797 793 794 807 824 826 820 817 813 812 810 805 802 801 795 783 775 774 773 773
808 805 803 802 801 801 800 800 800 799 797 796 797 801 808 818 818 811 810 807 804 799 797 798 796 793 794 797 800 796 796 800 797 795 796 795 798 801 799 794 792 797 804 808 810 810 811 805 795 792 791 786 785 789 790 790 789 789 789 791 796 804 810 817 820 819 817 813 802 795 802 815 824 826 822 817 814 813 809 805 802 798 792 781 776 778 779 779
806 804 802 800 800 800 799 800 799 799 798 797 800 806 814 820 816 810 810 807 802 801 799 798 797 797 799 800 799 797 799 803 801 800 804 807 809 809 806 800 795 797 803 809 812 810 812 809 796 791 791 789 790 788 784 787 791 789 788 793 795 795 798 807 814 812 813 816 810 806 815 822 823 826 822 817 818 815 810 807 802 795 788 780 779 782 783 784
804 801 800 799 798 799 798 799 799 798 798 798 804 812 815 814 810 808 807 802 802 803 802 801 800 804 809 806 803 802 799 801 804 805 810 815 815 812 810 804 797 797 801 808 814 812 811 808 798 793 791 789 792 791 784 788 794 792 792 795 793 789 791 802 811 810 810 817 817 815 822 823 821 824 822 819 820 816 811 808 802 795 789 785 785 787 788 788
804 800 799 798 797 797 798 799 799 798 799 801 808 814 812 807 803 802 801 799 800 801 804 809 808 809 815 814 811 809 803 803 807 808 813 818 816 814 812 804 797 797 797 802 809 811 812 810 804 802 799 791 790 789 786 786 790 793 796 793 789 789 791 797 807 811 813 819 823 823 826 825 824 828 828 824 822 818 813 809 804 798 793 792 793 793 792 792
804 802 799 797 796 796 797 798 799 799 800 804 811 812 808 804 800 797 797 797 799 801 807 814 812 811 816 817 816 812 807 809 813 813 816 819 817 815 813 805 799 797 796 796 803 808 811 813 808 804 804 798 791 790 792 790 787 790 792 789 791 797 799 799 805 810 813 819 825 828 828 828 828 831 833 830 825 820 814 810 806 801 797 798 798 797 796 795
806 804 800 797 796 796 797 798 798 800 803 808 813 811 804 801 798 794 795 797 798 802 809 813 812 812 815 817 817 814 811 813 815 817 819 820 818 815 812 807 801 799 796 795 802 808 809 813 812 805 803 803 799 800 806 803 792 789 790 789 793 798 800 802 803 806 810 816 824 827 828 830 830 830 831 829 825 821 816 812 809 804 801 801 801 800 799 798
807 806 801 797 797 797 797 798 799 803 807 809 811 808 802 800 798 793 793 795 798 802 807 810 810 813 814 814 815 814 813 814 814 817 820 819 816 813 808 805 801 799 798 798 803 807 808 812 815 809 804 808 812 812 813 810 801 797 798 800 800 799 799 802 803 804 806 812 820 825 829 833 830 827 827 826 823 821 818 815 812 808 805 803 802 802 801 800
809 808 802 796 797 798 797 800 803 805 807 807 807 805 801 798 797 795 794 795 797 798 801 805 807 810 812 814 814 813 814 815 816 820 824 819 815 812 804 799 798 798 800 802 805 806 809 813 816 815 813 817 820 815 809 806 804 803 806 807 806 803 802 806 809 809 807 809 816 821 829 834 828 824 825 824 822 820 817 816 814 811 809 806 805 804 803 802
810 809 802 797 798 797 798 804 806 805 806 805 802 800 797 795 796 796 794 795 796 797 798 802 805 808 811 811 812 812 813 816 818 821 824 820 814 810 801 794 795 797 800 805 806 804 806 812 817 820 821 820 818 813 809 805 801 801 805 807 806 805 806 808 810 811 812 813 815 818 827 832 827 823 824 823 821 818 816 815 814 812 810 808 806 805 804 804
811 807 799 797 798 797 801 807 806 804 805 801 797 795 793 794 796 796 795 796 797 799 800 802 803 805 808 808 809 811 812 817 819 817 818 818 811 804 798 793 794 797 800 805 807 804 806 813 819 822 822 819 814 810 807 804 802 805 807 807 807 808 806 805 804 806 812 817 816 818 827 831 827 823 823 822 820 817 814 813 812 812 810 808 807 806 806 805
813 808 801 798 798 798 803 809 807 806 805 800 799 797 794 794 795 795 797 797 797 799 801 802 801 803 805 805 807 809 810 815 820 816 815 819 811 798 793 793 794 797 799 802 804 803 809 816 818 821 824 822 818 816 812 809 809 812 813 810 809 807 804 803 802 804 812 818 816 816 825 831 828 825 824 822 820 817 814 812 811 811 810 808 808 807 807 806
813 809 803 799 797 798 802 804 804 806 806 804 803 801 797 796 794 793 796 796 795 797 799 801 800 800 803 804 806 808 808 811 816 817 815 817 810 797 792 793 794 795 796 796 796 799 809 817 817 818 822 823 824 825 822 819 819 818 816 813 810 808 807 805 804 807 813 819 818 817 824 830 828 825 825 824 821 819 816 814 812 811 810 809 808 808 807 806
813 809 806 802 799 800 801 799 800 803 804 805 805 802 800 800 796 793 794 795 795 795 797 798 798 800 804 806 808 811 810 809 812 814 815 813 807 798 793 792 793 794 794 794 795 799 809 817 817 817 819 821 824 823 821 822 822 820 818 814 811 811 810 807 807 811 814 818 822 821 823 828 829 827 826 824 821 821 819 816 815 813 812 811 810 809 808 806
814 810 809 807 805 804 803 800 800 801 802 805 805 802 801 800 798 796 796 796 795 794 796 798 799 802 806 808 811 813 813 812 812 813 814 811 806 800 793 791 794 794 794 795 797 802 812 819 819 819 819 820 821 819 819 821 821 820 818 816 814 813 811 810 812 814 814 815 822 823 821 826 831 828 825 823 821 820 819 818 816 815 814 814 812 811 810 808
812 809 807 808 809 808 806 803 802 801 801 802 802 801 800 800 800 800 798 796 794 793 797 802 802 803 805 806 810 814 814 814 815 814 812 810 807 803 796 793 794 794 795 799 798 802 813 820 819 820 821 821 819 818 817 819 819 818 818 816 815 815 814 815 818 819 815 815 821 824 823 825 828 825 823 821 819 819 819 818 817 816 816 815 814 813 812 811
811 809 807 807 808 809 807 803 802 802 801 801 801 800 800 800 801 800 797 797 797 795 796 804 806 803 803 802 806 812 815 815 817 815 811 810 809 807 803 799 798 796 797 800 800 802 811 819 819 820 823 822 819 817 816 817 819 819 817 816 816 816 816 817 819 819 817 819 822 823 823 823 823 821 820 818 818 819 818 818 817 817 817 817 816 815 815 813
811 811 810 809 809 807 805 803 802 803 801 800 802 800 798 800 800 799 796 796 801 799 797 803 807 804 802 802 803 808 810 810 814 813 809 810 810 807 805 802 799 798 797 799 802 802 809 817 818 819 824 824 820 818 818 818 819 819 818 816 815 817 818 819 819 819 819 822 823 822 823 822 820 818 818 818 818 818 818 818 818 818 818 818 817 816 816 814
810 810 809 810 811 807 805 804 803 804 804 802 802 800 798 799 798 797 797 795 798 800 799 802 805 804 803 803 803 805 805 804 807 806 804 806 807 804 804 801 798 799 799 799 802 803 807 816 818 819 824 824 820 820 820 818 819 820 820 818 816 816 817 817 817 818 818 820 823 824 823 820 817 817 817 818 817 817 818 820 820 819 819 818 817 816 815 814
809 808 807 809 811 808 806 805 803 805 805 801 800 799 797 797 794 795 799 798 796 796 797 799 802 802 804 805 803 801 800 799 800 799 799 800 800 799 800 799 798 798 798 798 800 803 807 813 818 820 821 820 818 820 820 821 824 822 816 814 815 816 817 817 816 816 816 817 820 822 819 816 816 817 819 819 818 818 819 820 820 819 819 818 817 815 814 813
Wind_Speed
18 18 18 17 17 17 15 14 14 13 12 12 12 13 15 15 16 16 17 18 18 18 18 17 16 15 14 14 14 14 14 12 11 11 9 7 7 5 2 3 5 5 5 6 8 8 9 9 10 13 9 3 2 2 3 3 2 2 2 3 4 3 4 3 4 4 3 7 8 6 7 9 11 9 8 9 11 9 4 1 6 5 8 11 17 30 38 35
19 18 18 18 18 17 16 15 14 12 11 12 12 13 14 15 15 16 18 19 18 17 17 16 15 14 13 13 13 13 14 13 12 12 11 8 6 5 3 4 5 5 6 7 8 6 5 6 7 12 5 2 2 2 2 2 2 2 2 3 3 4 5 4 6 7 6 10 11 9 8 8 8 7 7 7 11 9 3 3 4 8 11 15 21 30 33 33
19 19 19 19 19 18 17 15 13 11 11 12 12 13 14 15 15 17 19 19 18 16 15 14 14 13 12 11 10 11 12 10 7 8 7 4 5 4 1 3 4 4 6 6 9 7 5 9 9 7 2 3 3 1 1 2 1 2 3 2 4 5 5 5 7 9 9 10 11 11 7 6 7 5 5 6 9 10 5 0 4 5 9 14 18 24 28 30
20 20 20 19 19 18 17 16 13 11 11 11 12 13 14 15 15 18 20 19 17 15 14 13 12 12 11 10 9 9 9 5 3 4 1 3 5 1 1 2 4 3 5 7 10 11 10 13 10 4 3 3 3 1 2 3 2 2 4 4 5 5 5 6 8 8 10 10 9 9 7 8 7 3 4 5 6 8 7 2 3 5 10 15 18 19 24 25
21 21 21 21 20 19 18 17 14 11 11 12 13 13 15 15 16 19 19 18 15 13 12 11 12 12 11 9 7 7 6 3 3 4 3 4 3 1 2 2 1 2 5 7 11 13 12 10 5 1 1 1 2 1 3 5 3 3 4 5 6 4 4 7 8 8 8 8 7 7 7 6 5 3 3 4 5 2 5 6 2 7 9 13 19 19 19 19
21 21 21 21 21 20 18 18 15 12 11 12 13 13 15 15 17 19 18 16 14 11 11 10 12 12 11 9 5 3 3 1 4 4 5 6 4 2 2 1 1 0 5 9 12 11 10 6 1 2 1 1 2 2 5 5 4 3 6 5 8 7 7 8 8 8 6 4 7 6 5 4 5 5 3 1 3 4 5 8 4 5 5 3 7 14 18 19
22 22 22 21 21 20 19 18 16 12 11 12 13 14 15 15 17 19 16 14 12 10 9 10 11 12 11 7 3 2 3 3 7 5 3 4 3 1 2 2 1 2 7 10 9 6 6 5 2 1 1 2 3 4 5 5 4 6 7 6 9 9 8 8 8 8 5 4 7 6 5 4 6 5 2 2 2 5 3 7 4 6 11 8 4 2 11 19
23 24 23 23 22 20 20 18 16 14 12 12 13 14 14 15 17 18 15 13 10 8 8 9 11 11 11 5 2 3 0 4 6 6 1 2 2 3 3 2 1 6 9 10 8 5 6 4 3 1 2 1 2 3 4 4 1 4 6 5 5 6 7 7 6 6 5 4 5 5 7 7 6 5 3 4 3 3 3 5 4 6 10 10 6 1 5 8
25 25 25 24 23 22 20 18 17 14 13 12 13 14 14 16 17 17 14 12 9 7 7 9 11 11 10 4 2 3 3 3 6 7 4 6 6 5 3 1 3 7 9 12 11 6 5 2 3 1 1 3 3 5 5 4 3 3 5 5 4 5 6 5 3 3 4 4 4 6 8 9 6 4 3 1 3 4 6 6 5 4 6 9 9 7 2 7
25 25 26 25 24 23 21 19 18 15 13 13 14 14 15 16 16 15 13 10 8 6 6 8 11 11 8 4 4 3 4 5 8 6 3 6 6 5 3 2 3 7 9 12 9 4 3 4 7 2 2 2 4 7 5 2 3 6 6 6 5 5 5 3 4 4 4 4 4 4 6 10 7 4 2 3 3 3 7 6 5 5 6 6 6 9 7 1
25 26 26 27 26 25 22 20 18 16 14 14 15 15 16 16 15 14 11 9 7 6 6 8 11 10 5 2 3 2 5 7 9 6 3 4 6 5 3 3 5 7 9 11 8 6 6 6 6 2 1 1 4 8 6 2 5 7 6 6 6 6 5 5 6 6 5 3 4 4 7 10 7 5 5 3 2 1 5 4 5 7 7 5 6 9 6 6
26 27 27 28 27 26 23 21 19 18 16 16 16 16 16 16 14 12 9 8 6 7 7 9 11 8 5 1 3 5 5 8 9 7 6 8 9 6 3 3 7 10 9 7 7 7 8 9 7 5 1 1 3 5 5 7 7 8 6 5 8 8 6 7 5 5 5 3 4 2 7 10 8 8 8 9 8 2 3 1 3 7 8 7 9 7 5 8
27 28 28 28 27 26 24 22 20 19 18 17 17 17 17 15 12 10 9 7 6 7 8 10 11 6 4 1 6 7 5 6 10 10 8 11 12 8 6 4 8 12 10 7 7 5 5 8 5 2 2 1 2 3 4 7 5 7 6 4 6 7 6 8 4 3 5 5 2 2 3 8 9 11 9 10 11 6 4 3 1 5 7 8 8 7 5 7
27 28 29 29 28 26 25 23 21 20 20 19 18 17 15 13 10 8 8 7 7 8 9 11 11 4 2 4 10 11 10 8 10 15 13 12 15 14 12 10 10 12 12 11 10 6 5 8 3 1 2 1 2 3 4 6 3 5 6 4 4 4 6 8 4 4 6 5 3 5 4 7 10 12 10 10 10 6 5 6 3 3 6 6 6 9 8 8
26 28 29 29 29 27 25 23 22 22 21 20 19 17 14 11 8 7 7 7 7 8 9 11 8 2 1 7 11 10 7 6 9 17 16 13 15 12 11 13 15 14 14 13 11 10 9 6 0 1 3 2 1 3 4 4 3 4 3 4 4 0 6 9 6 4 7 7 5 8 5 7 10 11 10 10 8 5 4 6 6 2 5 6 5 10 11 9
26 28 29 29 29 27 25 23 22 23 22 21 19 16 13 10 8 6 6 8 7 8 9 7 4 2 1 5 8 8 4 7 8 12 15 14 12 8 6 6 9 12 15 16 15 13 8 2 1 2 1 3 3 3 4 4 5 3 1 4 4 2 4 7 7 5 9 8 3 8 6 5 7 8 10 10 8 7 5 5 6 5 5 6 5 8 11 11
26 27 29 29 28 28 26 23 22 23 22 21 19 17 14 11 11 8 6 7 7 7 7 4 2 2 2 7 9 6 3 7 7 9 11 9 6 5 5 2 1 5 8 10 12 10 4 1 1 1 2 2 2 4 4 4 4 4 2 3 5 4 4 5 6 5 5 5 3 7 8 6 6 6 8 10 10 9 7 7 7 6 5 6 6 7 9 11
26 27 29 29 28 28 26 23 22 22 22 20 18 17 14 10 9 8 5 4 4 5 4 3 2 2 2 6 5 3 3 5 6 8 7 4 4 3 4 4 2 2 3 4 4 1 1 2 1 1 3 4 3 5 2 2 3 3 4 4 4 4 5 5 6 5 2 2 0 3 5 8 9 8 9 10 9 9 9 9 6 6 6 5 7 7 7 10
26 27 29 29 28 28 26 24 22 21 22 19 17 14 10 9 6 2 1 1 0 1 2 2 2 2 4 5 4 4 4 5 4 4 3 1 2 2 2 4 1 2 3 3 4 3 2 3 4 2 3 3 1 2 4 5 5 5 5 5 4 5 5 6 7 4 4 3 1 4 4 8 9 9 10 10 8 8 9 8 6 6 6 3 7 7 7 9
25 27 29 29 29 27 26 25 21 21 21 19 19 13 6 6 5 3 3 1 3 5 5 6 4 3 7 5 5 6 6 5 2 2 4 3 4 1 3 2 4 5 2 1 3 2 3 3 2 3 4 4 4 3 3 5 5 6 6 4 4 5 5 6 7 7 5 2 1 3 4 6 7 8 8 9 8 8 9 8 7 7 7 6 5 8 9 9
25 27 29 30 29 28 26 23 20 20 18 16 16 8 1 2 2 2 4 4 8 9 9 11 9 8 12 13 13 8 3 3 5 3 4 5 4 2 2 2 5 4 2 1 2 2 4 3 4 6 7 6 5 5 5 6 7 7 5 4 5 4 5 6 6 7 6 4 3 3 3 4 6 6 7 5 5 6 8 8 9 9 9 8 5 6 9 8
25 27 29 29 29 28 25 21 19 16 13 14 11 3 3 2 2 2 3 4 8 7 9 10 9 10 15 18 15 4 2 3 6 4 5 4 4 1 1 2 3 3 4 2 2 4 5 3 8 8 6 4 4 4 4 4 7 7 3 4 5 4 4 5 6 7 6 5 5 7 6 6 6 6 6 4 3 4 6 7 8 9 9 9 8 5 6 7
25 28 30 29 29 28 24 21 16 10 12 14 9 4 4 2 3 7 3 2 6 5 5 6 6 6 6 8 7 1 3 1 2 4 3 2 2 1 2 3 2 2 2 1 2 1 2 5 8 7 4 2 3 4 4 4 4 4 2 2 4 4 2 3 6 7 6 3 4 6 4 5 6 5 6 7 7 7 7 8 7 7 8 9 10 9 6 7
26 29 31 30 29 26 24 19 9 8 14 11 6 6 6 4 7 9 3 1 4 5 5 5 4 3 3 2 2 3 1 1 3 4 2 4 2 1 2 1 1 2 3 3 4 3 4 8 6 4 4 3 3 5 4 3 3 3 3 3 4 4 2 3 4 6 6 6 5 6 6 5 5 7 8 9 11 12 12 13 14 12 9 8 8 10 10 5
26 29 31 31 28 26 24 13 6 12 13 6 6 11 9 7 10 8 3 1 3 5 4 3 2 0 1 1 2 3 2 2 4 5 2 5 3 2 2 0 1 1 5 3 2 1 6 8 4 3 5 3 3 5 3 3 2 3 3 5 6 4 3 3 5 6 6 5 4 6 5 5 5 8 9 9 11 11 11 13 13 13 12 9 5 8 9 3
26 29 31 30 27 27 18 4 7 15 8 5 10 12 10 10 10 6 3 3 3 3 1 0 2 2 2 0 3 4 5 3 7 4 1 5 5 4 2 2 1 1 5 1 2 1 4 5 2 2 4 4 3 5 5 4 2 2 4 4 3 1 4 5 6 5 2 3 4 4 3 4 5 7 8 7 9 10 11 13 13 11 12 11 7 5 3 3
27 29 32 29 24 22 12 3 12 13 2 4 12 11 12 13 8 3 3 3 3 2 1 1 2 1 1 2 0 4 2 5 5 4 1 6 3 3 2 2 2 2 3 2 2 2 2 4 3 1 3 4 3 4 5 4 5 3 5 1 2 4 4 4 4 2 2 3 5 3 3 2 3 3 5 6 9 10 12 13 13 11 12 12 11 9 8 8
27 30 32 29 21 12 8 9 13 9 3 8 12 12 16 13 6 2 4 2 2 1 1 2 1 1 2 3 3 2 4 4 2 3 3 6 2 4 2 2 1 4 3 4 1 5 1 2 2 1 3 3 4 5 5 5 4 5 6 2 1 2 1 2 2 2 3 1 5 6 1 1 3 3 5 6 8 9 12 12 13 12 12 12 11 11 12 13
27 30 31 30 19 5 5 9 9 7 10 13 14 16 15 10 4 3 4 1 0 1 1 1 2 3 4 4 3 1 2 2 1 3 2 3 1 4 2 3 3 1 2 4 3 5 2 4 5 2 1 1 4 7 4 4 3 5 2 0 0 3 2 2 0 2 1 2 4 7 2 2 3 4 6 6 5 8 10 10 10 12 11 10 9 10 12 12
27 30 30 28 16 4 5 10 6 8 12 14 18 16 10 4 4 4 2 0 1 1 1 2 2 2 4 5 4 4 3 3 3 2 2 2 4 4 1 1 3 3 3 3 1 4 4 4 4 3 2 1 4 5 1 2 3 2 2 3 3 4 4 2 1 1 2 1 5 5 2 3 1 4 4 4 3 6 8 8 9 13 10 9 7 8 12 10
27 29 27 23 13 4 5 6 4 7 10 14 18 12 4 3 4 4 1 0 1 2 3 3 2 2 4 4 2 4 4 3 4 4 4 3 4 5 3 4 4 3 4 4 3 5 6 4 2 2 0 2 2 3 3 3 3 1 2 3 2 4 4 4 4 3 2 3 5 3 2 5 3 2 3 4 4 7 7 8 9 12 7 5 4 7 12 9
28 27 21 15 10 6 5 3 4 7 9 14 13 5 4 4 3 1 1 2 1 2 3 2 3 3 3 2 1 2 2 3 3 3 3 3 3 4 2 1 1 3 3 3 2 5 5 2 3 5 3 4 3 3 4 6 5 4 3 4 3 2 3 3 3 2 1 4 4 2 3 4 3 2 5 6 7 8 7 9 10 12 6 5 6 9 11 9
27 25 16 9 8 8 7 5 5 6 10 13 8 3 5 4 2 1 2 2 0 2 1 1 3 4 2 3 4 3 2 4 4 5 5 3 3 4 3 2 3 3 0 2 1 4 4 4 6 6 4 4 4 3 3 3 4 2 2 4 3 2 2 1 2 1 1 4 5 3 3 3 3 2 6 7 7 7 8 11 11 11 6 7 11 12 11 10
26 21 13 8 8 7 6 5 4 5 10 11 4 4 5 3 0 1 2 1 1 1 2 2 3 4 3 4 3 2 3 4 5 5 6 5 4 3 4 5 6 3 1 1 1 1 1 3 4 3 3 5 5 4 2 2 2 2 3 5 3 3 3 2 2 1 1 3 5 3 3 2 3 1 5 6 6 6 7 9 9 7 3 8 12 12 11 10
24 18 11 9 8 5 3 4 3 4 7 5 4 4 4 1 2 1 1 2 1 2 4 3 2 4 5 4 2 3 2 2 4 5 5 4 2 2 3 3 5 4 3 2 1 0 1 2 5 3 3 3 6 6 4 2 1 3 2 4 1 3 4 2 2 3 3 1 3 2 2 2 4 3 4 6 4 7 8 9 7 5 8 10 12 11 9 9
23 18 8 6 8 4 3 3 4 3 3 4 5 3 1 2 2 1 1 2 1 0 3 5 4 4 4 3 2 5 3 1 3 3 4 3 2 3 4 3 3 4 3 2 1 0 1 3 5 6 5 3 6 6 3 4 1 2 2 0 3 3 5 3 1 1 3 2 3 3 2 1 2 2 6 7 4 6 7 6 5 8 11 12 11 10 8 8
24 19 7 6 7 4 5 4 6 3 1 5 4 0 2 2 1 2 2 0 0 1 4 3 3 3 2 3 3 5 5 3 3 2 1 3 2 3 5 5 3 3 3 3 1 2 2 2 4 5 4 5 7 6 2 4 1 1 1 3 2 1 3 3 1 1 3 3 1 3 4 2 1 1 5 9 8 7 7 7 7 9 10 11 9 9 9 9
21 16 8 7 4 5 6 6 8 4 3 5 2 1 2 1 1 2 2 1 1 3 6 2 0 2 2 2 2 5 5 3 3 2 0 1 1 2 4 4 3 3 3 3 1 2 3 0 4 3 2 6 8 5 3 6 5 2 2 2 2 2 0 1 1 1 1 2 1 2 3 2 2 0 3 7 9 7 6 7 9 10 10 9 8 9 10 10
14 8 4 3 3 7 9 11 7 3 5 3 1 1 1 1 2 2 2 3 2 4 4 1 0 2 2 2 1 3 4 2 1 2 1 0 0 2 3 2 2 2 4 4 2 2 2 2 3 4 3 4 5 5 2 5 6 3 2 3 2 2 2 1 1 2 3 2 2 2 1 2 2 2 4 6 8 7 7 7 8 9 9 8 7 8 9 9
6 1 2 2 7 10 12 10 3 4 3 1 2 2 2 1 2 4 2 2 2 2 2 1 1 2 1 1 1 1 2 2 1 2 1 1 1 3 4 3 2 1 4 5 3 1 2 2 2 5 4 2 2 3 3 3 3 3 4 4 4 2 1 1 0 1 3 3 3 3 1 1 1 3 5 6 6 6 7 6 6 7 8 8 8 7 7 8
2 1 2 4 8 9 8 5 2 2 1 1 1 2 2 1 2 3 2 2 2 3 3 3 3 3 2 1 1 1 1 2 2 2 2 2 1 2 5 3 1 0 2 4 2 1 1 1 1 2 3 3 1 4 6 4 1 2 3 2 3 1 2 3 1 2 1 3 3 4 2 1 1 2 4 5 5 4 5 5 4 6 7 7 7 7 7 7
1 1 2 3 7 6 5 3 1 1 1 1 2 3 2 0 1 1 0 2 2 2 3 3 2 2 3 2 1 1 1 2 1 2 1 4 2 3 5 2 2 2 3 2 1 1 2 2 2 1 1 1 2 7 8 6 2 4 3 2 1 1 2 3 2 2 1 1 1 3 3 1 1 2 2 4 5 4 4 4 4 5 5 6 6 7 7 7
0 3 4 2 6 5 5 2 3 2 1 3 3 2 1 1 1 1 0 1 2 1 2 1 1 2 2 2 1 1 2 3 2 1 1 4 3 6 7 2 3 3 3 1 1 1 1 2 2 1 1 2 4 6 5 6 5 4 3 3 2 2 1 3 4 3 2 1 1 3 1 2 1 2 2 3 5 5 5 5 5 5 4 5 7 7 7 7
2 4 5 3 6 5 4 1 2 2 3 3 3 3 1 1 1 1 1 0 1 2 2 1 0 2 2 2 2 1 2 3 2 2 1 2 4 7 5 1 4 3 1 2 2 1 0 1 2 2 1 1 3 4 4 6 5 2 3 4 3 4 4 1 1 3 2 1 2 4 2 2 2 1 2 4 5 6 7 7 6 5 4 5 6 6 6 6
3 2 3 3 2 3 2 3 3 1 2 3 3 3 2 1 1 2 3 2 2 4 3 1 1 3 2 2 2 2 1 3 1 1 2 2 4 6 3 3 6 3 1 3 3 4 2 1 1 3 3 2 1 1 2 2 3 2 3 5 5 6 5 1 1 3 2 1 1 3 2 3 2 1 3 4 5 6 7 7 7 5 5 6 6 6 6 6
2 0 3 4 2 1 1 2 2 2 1 1 2 3 1 1 2 1 1 1 2 2 2 1 2 4 3 4 3 3 3 2 2 2 2 3 2 4 3 2 5 4 2 3 5 5 3 2 2 4 4 4 4 4 4 1 2 3 4 5 6 5 4 3 3 2 2 2 3 2 3 5 0 3 4 5 4 4 6 6 6 5 5 6 6 6 6 6
1 0 1 2 3 2 2 3 3 2 1 2 1 3 2 2 2 1 3 0 2 2 2 1 2 3 2 3 3 1 3 3 2 2 2 4 3 5 5 1 3 5 5 5 5 4 3 2 3 4 3 3 5 5 4 2 2 1 2 4 5 5 6 6 3 1 2 4 1 2 3 5 2 4 4 5 5 4 5 5 5 3 4 5 5 6 6 7
1 0 1 2 1 1 1 2 3 4 2 1 1 2 3 2 1 1 1 1 1 2 2 2 3 4 5 4 4 1 2 3 3 2 2 3 3 4 6 3 3 6 5 3 2 4 4 1 1 3 2 2 3 3 2 2 1 0 1 3 4 5 6 6 2 1 3 5 3 3 4 4 4 5 4 5 4 3 4 5 3 3 4 4 5 6 6 7
0 1 2 1 1 2 3 3 4 4 3 2 1 1 2 2 1 1 1 0 2 2 2 2 1 3 6 5 5 3 1 2 1 3 2 3 3 3 3 3 2 3 4 2 1 3 4 1 1 4 2 1 2 2 1 3 2 2 3 3 4 4 5 5 2 1 5 6 4 5 6 3 5 5 5 5 4 4 3 2 3 5 4 4 5 5 5 6
1 0 2 3 2 3 3 3 2 2 3 2 1 3 2 2 2 2 1 3 1 4 2 4 3 3 3 5 6 4 5 6 4 4 3 2 3 2 1 1 1 1 1 2 0 2 4 2 2 4 2 2 3 3 2 1 2 1 4 5 4 5 4 3 2 2 5 5 3 5 4 2 4 4 4 3 2 0 2 4 5 4 3 3 4 4 4 5
3 4 2 2 2 3 2 3 2 1 2 2 1 3 2 1 3 2 1 1 3 1 1 6 5 1 2 3 4 4 6 7 7 7 6 4 4 3 2 2 1 1 2 0 1 2 3 2 1 3 2 2 4 4 4 2 0 1 4 5 1 3 2 1 1 2 3 4 4 4 2 3 5 3 2 1 2 2 3 3 3 3 1 1 1 3 4 5
3 5 2 4 0 3 2 3 2 2 0 2 2 2 3 3 1 3 1 2 2 3 5 7 6 3 2 0 3 7 8 7 7 8 6 5 5 4 4 5 3 3 2 2 1 1 4 4 2 3 2 3 4 5 3 1 2 3 4 5 4 3 3 2 0 2 2 5 5 3 3 4 2 2 2 1 2 2 1 2 3 1 1 3 3 4 4 5
Wind_Direction
357 356 352 350 347 346 343 337 336 335 337 341 344 347 347 349 349 350 351 348 348 348 351 354 355 355 352 351 349 343 335 330 325 315 303 302 301 273 264 307 302 322 313 301 325 337 339 333 335 340 326 254 195 209 222 204 177 174 175 217 231 204 212 209 237 255 266 280 286 321 334 326 320 320 320 314 340 349 279 228 135 101 63 113 127 136 145 146
356 354 350 349 347 345 342 336 333 329 330 334 337 342 343 346 347 348 347 343 343 343 349 353 356 356 352 352 349 343 336 330 324 305 286 286 283 253 256 307 301 311 295 296 322 335 342 308 320 342 330 199 253 222 212 229 176 174 182 218 227 206 222 229 253 275 284 281 293 314 324 325 321 323 328 329 334 345 331 317 61 75 83 106 120 135 144 146
355 353 350 349 346 344 341 336 331 323 325 328 330 335 339 343 344 344 343 339 336 338 345 352 356 356 353 349 346 344 335 333 326 298 291 265 226 240 285 311 301 298 282 292 316 313 295 281 291 318 272 212 267 233 216 263 238 204 196 221 244 227 226 230 245 262 268 276 298 308 322 323 316 332 338 343 339 351 22 61 48 70 117 126 135 143 147 150
354 352 351 348 345 343 339 336 331 321 321 322 324 330 335 338 340 341 339 335 332 334 343 351 354 352 352 343 338 340 336 345 326 284 287 168 194 255 14 308 304 286 275 297 312 308 298 287 281 266 195 224 277 99 187 240 257 232 191 188 228 237 237 245 246 254 266 280 296 300 321 317 305 335 334 0 12 2 359 273 151 155 161 147 149 153 155 156
354 351 349 347 344 341 338 337 333 323 317 316 319 324 330 334 336 338 337 334 330 333 342 350 350 350 350 338 331 335 351 28 300 265 215 201 210 313 354 315 304 266 276 299 307 309 307 291 283 317 121 215 285 103 233 235 201 250 240 207 226 235 244 260 255 246 251 277 297 301 318 304 309 345 317 25 60 357 309 300 255 173 174 160 160 160 159 160
354 352 349 347 344 340 338 337 335 329 318 314 316 320 327 330 334 338 340 336 331 334 344 349 349 351 349 341 331 335 39 98 274 269 247 243 252 300 308 275 138 246 295 305 310 316 315 306 4 360 10 13 279 221 264 257 171 230 269 240 242 241 236 257 263 249 234 267 294 291 293 289 332 331 270 44 100 205 267 309 312 148 117 85 157 164 163 165
355 352 350 348 345 341 339 338 337 335 323 315 315 319 324 328 335 340 342 339 334 338 346 348 349 350 351 351 351 25 94 245 261 254 279 262 254 295 149 155 118 299 294 305 314 320 319 337 28 323 344 23 296 252 277 285 190 207 249 250 253 250 240 247 257 270 271 269 276 286 309 311 316 306 263 298 207 193 280 318 332 113 101 69 36 239 184 173
356 354 351 349 346 343 341 339 341 339 327 317 316 319 324 329 335 340 343 341 335 342 350 349 348 348 352 360 24 20 272 258 234 204 116 80 145 123 140 165 295 289 290 292 294 294 304 342 18 4 38 2 297 288 301 316 255 210 244 257 263 261 254 256 255 283 307 283 277 319 328 305 287 283 281 275 225 143 30 5 32 104 117 121 127 355 283 215
356 355 354 351 348 346 343 343 344 339 327 319 317 319 324 330 335 339 341 337 335 348 351 343 343 349 355 1 54 17 277 226 171 175 120 102 122 123 155 197 273 277 288 289 286 285 287 330 325 321 110 299 336 331 328 5 342 287 275 269 272 277 266 266 263 289 317 305 319 341 321 303 304 313 297 217 125 89 61 48 61 116 141 137 146 154 223 276
357 356 355 353 351 348 346 346 345 338 329 321 318 320 325 330 334 337 336 333 333 341 346 341 344 353 358 14 63 17 287 196 166 178 137 120 128 140 194 204 256 269 273 284 297 311 308 336 310 266 149 318 343 329 332 43 307 291 293 277 271 295 286 284 314 320 325 315 318 335 306 296 313 323 287 104 87 59 67 74 96 141 175 147 150 177 168 10
357 357 355 354 353 351 348 347 345 339 331 322 320 322 326 330 331 333 330 324 325 332 340 339 348 358 355 53 94 269 251 191 178 187 193 183 169 174 226 219 237 261 260 272 306 337 336 342 343 15 95 326 327 322 315 306 306 304 315 313 306 329 328 332 338 327 339 319 281 314 306 294 307 299 278 292 267 119 77 85 125 153 180 164 174 190 158 119
358 357 356 355 354 353 350 347 344 340 331 324 323 323 327 329 329 328 321 312 316 324 333 339 352 360 349 35 194 234 212 197 205 202 213 223 213 211 235 237 244 252 251 263 303 333 330 330 9 32 311 310 329 321 306 309 325 316 336 352 327 347 342 318 315 305 325 288 252 337 313 296 296 284 291 301 287 292 62 19 135 157 167 179 191 170 149 160
356 357 357 355 354 353 351 346 343 338 331 327 325 327 329 328 328 324 312 304 308 318 326 336 341 344 3 330 245 283 300 246 222 212 231 235 231 235 227 237 255 250 250 261 279 310 325 307 344 18 269 349 304 268 300 318 336 323 346 15 333 354 329 294 286 297 300 266 234 86 283 282 283 276 284 290 288 310 327 293 177 160 165 191 195 145 156 179
355 355 355 355 353 352 351 347 342 336 332 329 328 329 329 328 329 317 304 300 303 316 320 330 334 340 67 277 280 310 307 269 216 211 231 231 225 230 231 237 246 244 249 256 263 272 280 283 310 17 274 215 247 284 334 330 347 338 345 360 353 4 294 288 306 313 293 267 157 142 239 263 269 275 279 274 280 311 319 294 284 163 165 199 188 146 166 188
353 353 354 355 353 350 350 347 342 336 333 331 330 330 328 327 323 308 299 298 301 309 314 329 337 355 32 288 298 328 306 259 225 223 229 225 222 229 236 236 237 239 245 250 257 266 269 273 340 89 277 283 7 7 356 334 342 9 359 328 345 88 274 296 299 235 249 265 148 155 235 263 257 266 269 269 281 295 291 283 283 237 182 196 178 150 166 194
351 352 352 353 352 350 348 346 342 337 332 330 330 327 325 320 307 299 294 292 297 303 310 328 354 43 28 284 301 335 297 238 240 242 235 229 233 251 259 233 227 232 237 244 250 258 265 275 102 150 261 334 43 52 22 5 345 4 46 281 285 253 280 301 297 235 224 250 197 183 223 259 260 262 258 262 273 269 254 254 259 250 208 190 182 157 163 188
349 350 350 350 351 349 346 345 342 336 331 330 330 325 327 318 290 283 292 291 295 296 294 294 341 22 280 280 303 323 250 214 226 246 243 243 261 271 254 228 215 237 240 255 252 248 261 351 329 318 21 6 59 69 34 8 331 329 339 277 274 263 262 280 294 289 232 227 226 214 223 241 260 282 271 261 268 271 259 246 240 230 212 182 181 179 166 181
347 348 347 348 349 348 346 344 341 336 330 329 330 328 336 336 299 282 282 280 293 301 294 287 350 48 276 283 295 275 230 220 223 237 247 275 297 273 232 227 246 293 341 339 296 255 354 339 27 19 13 10 39 79 88 258 248 280 299 289 296 282 260 263 271 296 350 29 231 212 237 255 268 302 297 274 273 276 268 261 259 250 234 184 167 191 187 184
345 346 346 346 347 347 346 343 342 339 332 329 336 339 350 2 354 344 305 214 18 330 301 286 140 128 281 273 240 246 290 286 258 254 269 177 228 305 308 252 261 15 23 18 343 21 55 9 29 19 344 327 301 135 181 230 227 248 277 271 287 300 280 269 271 298 358 20 104 161 219 257 274 290 290 286 281 269 270 279 291 282 270 219 163 179 202 194
344 344 344 345 345 346 345 342 341 339 335 334 342 354 10 9 18 13 350 327 216 217 236 247 204 226 282 286 295 320 345 323 324 315 286 190 178 22 19 346 35 32 39 130 294 330 84 50 356 255 246 243 253 260 259 271 270 280 294 290 304 314 298 292 301 317 343 359 203 172 194 234 256 267 271 280 281 276 281 288 290 286 284 267 193 171 193 206
342 343 344 345 343 344 344 341 340 338 337 338 345 3 10 353 46 312 309 290 258 227 227 242 228 242 261 272 293 312 15 341 347 335 251 172 134 39 7 23 35 3 297 204 248 340 56 38 276 242 228 237 263 287 302 308 300 294 295 312 321 306 283 288 296 309 345 9 302 321 346 269 254 260 265 267 264 268 278 283 287 285 283 278 250 188 186 201
341 341 343 345 342 342 341 339 338 338 343 347 352 2 272 284 96 324 306 297 286 238 226 248 237 239 255 260 264 267 76 354 340 310 220 156 81 51 324 36 38 290 293 10 25 10 14 307 264 257 242 255 284 290 302 295 281 281 306 340 312 285 283 297 307 316 349 14 307 314 331 299 288 280 282 301 295 273 276 280 278 276 280 283 277 248 196 188
341 340 343 345 342 340 339 335 337 345 350 344 330 306 314 352 18 349 349 288 299 271 226 244 245 237 245 244 227 145 30 341 314 285 226 122 67 121 101 46 16 282 315 32 137 82 343 263 248 247 241 267 297 293 301 297 284 265 281 330 290 289 323 298 315 329 342 353 305 311 318 302 317 326 327 339 351 353 346 341 329 305 284 274 278 276 245 188
340 340 343 345 342 340 336 334 342 356 348 342 332 341 0 21 1 357 15 206 295 291 238 227 244 217 185 209 148 96 61 274 279 273 198 120 122 116 108 101 50 6 297 239 180 168 254 255 242 240 253 247 264 288 297 293 308 278 246 249 252 278 293 256 296 334 344 340 344 359 352 323 341 12 2 351 10 18 11 13 7 352 330 295 284 284 274 209
339 340 341 345 345 338 333 337 4 356 354 21 24 8 18 13 355 2 35 54 305 287 251 238 296 314 217 231 168 128 105 276 255 244 197 129 143 79 69 233 83 337 282 250 138 198 260 258 238 233 261 252 248 282 265 203 265 308 267 232 218 247 309 338 346 5 11 337 344 33 19 302 326 27 16 2 26 28 16 14 3 354 352 334 300 281 282 222
338 339 341 346 346 340 338 357 352 346 3 42 9 2 1 350 346 355 50 52 331 286 230 329 3 2 340 250 170 99 56 290 254 253 89 121 132 106 90 301 25 240 262 202 107 240 270 277 237 202 252 262 265 278 255 189 144 306 259 239 238 357 12 12 10 20 31 282 294 56 95 268 316 23 13 8 37 29 16 12 355 357 4 350 336 320 330 103
337 338 340 344 348 346 342 324 337 344 37 359 353 352 339 335 337 356 64 48 343 328 108 309 358 55 306 293 88 81 68 268 277 300 184 145 123 77 116 297 360 292 272 70 28 286 291 316 328 322 282 270 266 265 241 160 116 241 244 247 26 45 30 7 22 16 240 266 306 354 125 220 308 359 343 358 36 22 12 9 356 3 12 360 358 9 34 64
335 338 338 340 348 348 322 314 328 344 9 342 341 337 331 330 333 42 88 74 302 6 43 268 339 31 274 310 2 105 217 254 327 300 216 153 110 66 96 256 215 279 294 93 282 266 255 293 270 279 289 259 237 233 214 151 134 245 241 227 186 112 46 318 7 304 263 275 306 312 46 104 291 299 331 0 36 18 357 353 347 357 14 8 5 22 39 47
333 337 336 337 345 349 315 317 314 337 357 349 340 329 324 329 352 59 85 107 229 39 311 337 20 324 320 358 4 331 262 322 315 251 179 127 55 71 122 224 163 290 344 102 202 251 247 246 227 216 268 254 258 252 216 161 204 248 214 103 65 86 28 316 237 259 342 78 249 278 322 124 285 322 351 355 25 13 340 332 336 343 8 18 8 27 41 41
331 335 335 335 340 349 312 307 309 354 358 347 334 323 320 346 56 65 41 182 113 291 292 24 24 304 7 33 345 321 355 350 322 331 52 43 357 34 70 284 83 68 359 37 221 253 274 264 231 206 182 204 278 281 240 189 248 269 76 45 15 24 17 5 13 118 72 309 253 277 322 118 64 345 9 343 7 20 334 327 339 327 347 23 9 34 53 43
330 336 336 331 329 316 291 298 331 356 352 343 331 324 345 30 66 87 72 173 47 317 333 360 336 346 33 52 327 326 357 347 347 13 13 360 360 10 17 9 34 48 3 357 332 304 320 336 298 278 33 59 351 353 359 327 324 46 85 74 36 351 4 17 360 32 94 249 261 302 19 85 73 346 8 346 5 36 344 318 322 304 314 31 16 51 68 61
332 338 336 325 317 287 250 267 335 339 346 345 336 347 73 41 38 110 271 344 7 317 338 333 310 338 8 36 13 332 343 339 358 30 355 344 22 10 31 92 61 29 358 312 320 333 325 319 324 324 360 45 45 24 345 342 14 58 83 77 71 349 6 10 340 7 152 246 256 300 17 62 84 26 8 355 8 24 331 300 304 295 300 61 55 56 65 65
334 339 334 316 309 294 266 277 318 338 347 344 347 51 77 71 55 264 306 353 199 248 319 299 303 317 346 19 4 336 6 10 8 10 346 357 61 22 360 64 77 75 287 259 347 359 324 310 342 352 348 9 38 31 349 329 348 6 125 107 109 112 58 330 288 341 303 266 272 301 38 100 142 50 4 4 12 358 313 300 303 295 302 53 55 53 55 59
336 340 329 300 296 299 285 277 292 326 334 339 22 65 53 75 302 330 19 341 224 257 310 282 310 337 19 35 18 8 28 17 8 13 359 7 44 17 350 3 20 55 119 52 55 41 18 314 325 353 324 335 1 357 312 231 272 282 166 126 119 147 139 201 209 177 245 271 295 317 50 95 137 46 350 14 17 335 298 291 293 288 326 47 54 51 50 52
338 339 326 298 288 287 272 249 244 295 320 351 64 68 59 93 262 349 47 277 291 351 320 321 30 40 17 13 33 28 36 350 352 22 31 18 19 352 337 333 3 43 86 55 326 246 71 257 275 317 311 343 4 333 327 31 311 281 124 93 62 189 148 146 187 176 178 256 332 1 60 43 121 126 350 21 16 299 279 277 294 352 26 40 46 42 44 44
339 342 336 289 277 251 203 197 185 236 308 53 64 59 137 207 241 140 190 244 195 301 333 359 34 59 9 352 7 355 7 46 1 23 29 7 357 344 330 305 350 53 102 105 285 307 54 274 300 346 341 11 14 326 338 53 311 277 47 56 249 191 130 119 247 255 100 85 5 37 71 7 127 120 347 3 12 309 300 305 341 24 33 40 40 31 33 38
340 342 336 286 279 216 198 204 181 198 22 79 82 124 214 232 198 177 207 229 84 83 76 45 23 60 18 356 352 341 0 27 16 37 2 325 341 326 312 297 320 27 107 127 193 191 140 266 310 3 339 324 349 331 348 43 41 119 135 244 249 63 93 111 126 354 61 98 19 38 74 35 59 124 335 347 359 351 345 358 17 30 34 40 40 30 31 37
334 333 319 293 272 180 193 198 182 173 56 71 81 235 215 231 229 201 172 100 24 56 80 90 13 73 55 28 332 333 10 18 358 40 48 310 354 292 293 296 318 8 77 101 114 167 121 297 301 359 338 309 341 9 9 344 351 108 186 255 79 83 332 35 98 126 103 116 98 77 92 58 23 328 338 347 346 350 5 15 21 29 34 36 35 33 37 41
328 329 324 284 179 163 173 177 171 104 60 60 345 276 241 230 252 243 171 126 79 73 82 121 149 55 56 86 300 320 8 14 356 62 73 38 18 286 276 260 295 17 67 81 109 181 108 109 278 318 342 319 345 28 16 319 330 360 11 6 50 136 164 154 158 148 135 144 134 116 73 26 18 331 340 345 336 349 17 19 19 21 23 28 31 34 41 43
328 349 315 203 156 152 160 162 126 56 73 154 200 224 270 238 241 270 241 131 104 105 119 159 111 70 41 41 348 299 347 359 72 87 39 227 238 280 258 233 268 27 74 66 91 149 50 86 233 302 340 21 17 360 333 301 312 1 26 8 345 341 78 100 28 79 121 139 137 116 16 317 335 316 327 340 343 2 20 16 14 17 15 20 28 34 40 44
359 19 297 179 152 150 140 117 52 81 140 254 219 229 278 227 195 264 301 56 107 144 141 146 145 128 131 55 356 283 332 16 73 62 358 279 194 266 254 226 210 355 72 47 41 108 70 106 161 304 351 56 41 307 322 331 350 90 74 358 315 311 90 83 12 319 73 117 143 136 143 254 317 311 314 334 343 359 15 11 7 13 18 20 26 37 41 41
83 271 270 173 168 162 103 64 298 158 139 238 234 225 235 211 161 208 237 58 93 123 95 119 155 135 142 169 200 206 94 59 50 83 223 259 216 207 253 251 118 116 103 76 311 175 127 113 91 33 13 48 289 286 311 338 30 94 76 14 7 82 96 114 172 234 32 41 105 111 118 138 5 335 306 317 320 330 356 11 9 5 13 21 27 38 39 36
160 264 282 248 200 171 83 35 305 358 286 245 251 250 203 168 11 14 136 83 80 74 59 93 161 117 150 189 154 150 111 83 8 332 213 297 273 225 249 272 127 113 79 71 296 271 115 90 75 46 352 329 291 283 312 351 28 61 14 353 15 329 271 162 174 161 105 348 81 97 114 144 82 3 328 310 315 334 345 355 8 4 4 21 31 37 34 28
299 269 292 286 205 169 89 119 272 330 294 300 334 328 333 147 154 95 136 51 78 116 107 285 124 107 164 165 127 202 155 105 19 334 203 325 284 254 262 168 136 115 95 179 184 158 72 60 88 88 61 331 324 331 342 353 14 44 315 320 342 341 342 27 114 86 79 291 152 123 137 157 140 36 337 319 331 349 342 340 353 358 5 23 34 37 30 24
321 260 283 303 200 150 119 193 192 208 276 340 342 310 323 317 240 167 165 192 181 147 140 248 116 114 130 99 60 355 67 113 126 219 213 234 268 278 289 128 134 122 210 200 146 111 85 41 104 126 139 164 170 308 273 309 338 335 318 326 345 359 2 23 107 71 76 281 67 103 138 149 139 20 339 323 338 345 333 335 341 347 12 26 30 31 23 18
8 348 294 324 1 82 253 246 130 134 208 62 349 297 250 242 284 329 97 141 183 133 109 168 136 106 83 67 55 12 20 56 118 135 240 259 264 283 291 135 133 120 106 103 93 89 76 36 60 110 130 161 178 212 229 178 28 335 329 341 348 356 8 68 98 97 162 126 37 3 138 131 89 327 324 316 325 322 313 325 335 348 26 31 28 26 13 10
57 81 227 327 345 348 317 331 24 22 243 138 79 286 246 200 234 325 11 28 189 112 80 12 63 96 111 92 90 8 347 20 58 101 244 260 262 280 295 310 131 126 109 93 89 92 84 45 38 74 101 159 183 220 245 167 136 262 328 353 355 8 33 58 81 197 163 111 57 296 109 114 236 269 277 287 298 307 310 317 328 6 44 36 29 25 8 1
209 229 173 149 215 280 312 313 319 326 317 158 175 262 283 300 221 181 319 304 322 72 90 5 24 110 156 139 117 105 356 28 7 308 274 284 298 314 326 352 103 130 120 73 54 95 102 89 47 90 109 198 212 234 237 151 154 307 14 8 7 33 63 76 70 289 108 116 178 204 118 131 219 243 251 258 261 271 288 299 329 28 43 33 30 27 8 356
278 324 315 57 118 227 236 261 284 306 308 283 257 257 270 299 307 187 205 54 349 340 114 101 29 133 146 137 120 128 153 101 323 283 279 295 304 324 332 353 38 131 125 76 359 95 99 152 185 107 106 228 239 258 34 59 35 6 352 357 30 58 88 99 74 44 95 109 151 150 132 173 221 217 226 246 243 230 259 317 33 46 35 28 31 21 359 348
84 289 296 11 9 274 265 295 308 302 305 316 291 272 248 172 177 228 218 120 126 307 46 124 206 213 140 128 118 143 186 169 175 221 230 276 302 302 264 271 313 304 62 92 145 72 86 171 180 104 83 270 256 265 288 47 75 31 329 327 31 66 67 76 73 68 85 91 115 117 115 243 253 216 211 255 280 147 24 24 53 61 37 30 29 358 335 329
266 279 270 83 337 298 299 312 337 69 339 333 241 266 289 184 191 210 309 96 146 211 123 152 185 212 67 94 121 172 198 175 177 212 215 211 235 233 234 270 275 309 330 78 140 67 86 147 163 91 86 255 233 227 247 254 18 2 308 292 301 95 95 114 138 143 131 131 119 94 95 259 258 231 201 2 16 44 40 41 77 79 44 44 11 317 301 299
321 316 3 96 271 297 326 309 329 81 228 248 216 241 278 288 260 119 65 336 92 134 160 160 155 122 86 292 225 205 200 186 196 221 221 218 236 232 236 260 241 179 192 187 139 110 124 138 155 126 122 277 222 184 202 304 356 311 263 225 200 161 148 145 229 251 179 136 126 142 220 235 211 151 127 27 313 319 61 103 117 127 224 220 236 261 270 276